GW3613 Weather Reports


time (UTC)temp
C
wind
direction
speed
KPH
gust
KPH
rain 1hr
cm
rain 24hr
cm
rain mn
cm
humidity
%
barometer
mb
20260506002509 12 287 1.6 11.3 0.00 0.00 0.00 43 1011.4
20260506002009 12 290 0.0 11.3 0.00 0.00 0.00 46 1011.3
20260506001522 12 1 1.6 9.7 0.00 0.00 0.00 47 1011.4
20260506001003 12 276 1.6 17.7 0.00 0.00 0.00 47 1011.5
20260506000505 12 182 1.6 17.7 0.00 0.00 0.00 45 1011.5
20260506000005 13 148 1.6 11.3 0.00 0.00 0.00 44 1011.4
20260505235504 13 244 3.2 11.3 0.00 0.00 0.00 43 1011.4
20260505235006 14 264 3.2 11.3 0.00 0.00 0.00 42 1011.4
20260505234510 14 46 3.2 11.3 0.00 0.00 0.00 42 1011.4
20260505234004 14 222 1.6 11.3 0.00 0.00 0.00 43 1011.5
20260505233504 13 290 3.2 11.3 0.00 0.00 0.00 43 1011.4
20260505233015 13 153 1.6 6.4 0.00 0.00 0.00 44 1011.4
20260505232511 13 176 1.6 8.0 0.00 0.00 0.00 44 1011.4
20260505232008 13 273 1.6 9.7 0.00 0.00 0.00 45 1011.5
20260505231522 13 205 1.6 9.7 0.00 0.00 0.00 45 1011.5
20260505231006 13 119 1.6 9.7 0.00 0.00 0.00 45 1011.5
20260505230509 13 283 3.2 11.3 0.00 0.00 0.00 45 1011.4
20260505230031 13 251 1.6 11.3 0.00 0.00 0.00 45 1011.4
20260505225503 13 212 1.6 8.0 0.00 0.00 0.00 44 1011.4
20260505225003 13 289 3.2 9.7 0.00 0.00 0.00 44 1011.3
20260505224507 13 347 1.6 9.7 0.00 0.00 0.00 44 1011.5
20260505224005 13 278 3.2 14.5 0.00 0.00 0.00 43 1011.4
20260505223505 13 148 3.2 14.5 0.00 0.00 0.00 43 1011.5
20260505223009 14 205 1.6 4.8 0.00 0.00 0.00 43 1011.6
20260505222505 14 103 1.6 14.5 0.00 0.00 0.00 42 1011.5
20260505222007 14 281 3.2 14.5 0.00 0.00 0.00 42 1011.6
20260505221518 14 204 1.6 9.7 0.00 0.00 0.00 41 1011.5
20260505221007 15 278 3.2 9.7 0.00 0.00 0.00 40 1011.5
20260505220506 15 263 1.6 14.5 0.00 0.00 0.00 40 1011.5
20260505220027 16 285 4.8 14.5 0.00 0.00 0.00 38 1011.4
20260505215507 16 207 1.6 17.7 0.00 0.00 0.00 40 1011.5
20260505215009 16 289 3.2 17.7 0.00 0.00 0.00 39 1011.4
20260505214526 16 2 3.2 14.5 0.00 0.00 0.00 39 1011.5
20260505214012 16 3 3.2 14.5 0.00 0.00 0.00 39 1011.4
20260505213505 16 298 3.2 11.3 0.00 0.00 0.00 38 1011.6
20260505213019 17 14 4.8 11.3 0.00 0.00 0.00 37 1011.7
20260505212508 16 293 4.8 11.3 0.00 0.00 0.00 38 1011.8
20260505212005 16 164 3.2 12.9 0.00 0.00 0.00 38 1011.8
20260505211512 16 171 3.2 12.9 0.00 0.00 0.00 37 1011.8
20260505211005 17 176 1.6 9.7 0.00 0.00 0.00 37 1011.8
20260505210507 17 266 1.6 16.1 0.00 0.00 0.00 37 1011.8
20260505210019 17 264 1.6 16.1 0.00 0.00 0.00 38 1011.7
20260505205508 17 194 4.8 16.1 0.00 0.00 0.00 37 1011.9
20260505205008 16 106 3.2 14.5 0.00 0.00 0.00 38 1011.9
20260505204521 16 214 3.2 9.7 0.00 0.00 0.00 38 1012.1
20260505204010 16 15 3.2 9.7 0.00 0.00 0.00 40 1011.9
20260505203508 15 51 1.6 14.5 0.00 0.00 0.00 40 1011.9
20260505203031 16 204 3.2 14.5 0.00 0.00 0.00 40 1012.1
20260505202510 15 295 1.6 11.3 0.00 0.00 0.00 44 1012.3
20260505202006 14 41 1.6 11.3 0.00 0.00 0.00 42 1012.3
20260505201510 15 77 1.6 9.7 0.00 0.00 0.00 41 1012.5
20260505201005 15 261 3.2 8.0 0.00 0.00 0.00 41 1012.3
20260505200505 15 56 3.2 8.0 0.00 0.00 0.00 40 1012.3
20260505200018 15 68 1.6 4.8 0.00 0.00 0.00 38 1012.1
20260505195507 16 77 1.6 8.0 0.00 0.00 0.00 38 1012.1
20260505195006 16 236 3.2 8.0 0.00 0.00 0.00 37 1012.2
20260505194519 16 63 3.2 8.0 0.00 0.00 0.00 36 1012.2
20260505194007 16 329 1.6 8.0 0.00 0.00 0.00 39 1012.1
20260505193509 16 266 3.2 11.3 0.00 0.00 0.00 38 1012.2
20260505193026 16 157 3.2 11.3 0.00 0.00 0.00 37 1012.3
20260505192509 16 254 3.2 8.0 0.00 0.00 0.00 36 1012.2
20260505192016 16 4 3.2 8.0 0.00 0.00 0.00 35 1012.2
20260505191525 17 239 3.2 11.3 0.00 0.00 0.00 34 1012.1
20260505191012 17 139 3.2 11.3 0.00 0.00 0.00 35 1012.2
20260505190517 17 352 3.2 8.0 0.00 0.00 0.00 35 1012.2
20260505190017 16 277 1.6 12.9 0.00 0.00 0.00 39 1012.2
20260505185503 16 141 3.2 12.9 0.00 0.00 0.00 36 1012.4
20260505185005 16 108 3.2 6.4 0.00 0.00 0.00 37 1012.4
20260505184518 16 231 1.6 12.9 0.00 0.00 0.00 35 1012.3
20260505184006 17 149 4.8 12.9 0.00 0.00 0.00 36 1012.3
20260505183508 16 193 3.2 11.3 0.00 0.00 0.00 36 1012.3
20260505183023 16 229 3.2 11.3 0.00 0.00 0.00 35 1012.3
20260505182506 16 139 3.2 8.0 0.00 0.00 0.00 35 1012.1
20260505182012 16 233 1.6 12.9 0.00 0.00 0.00 35 1012.3
20260505181532 16 150 3.2 12.9 0.00 0.00 0.00 34 1012.4
20260505181010 16 164 3.2 11.3 0.00 0.00 0.00 33 1012.5
20260505180512 16 229 1.6 8.0 0.00 0.00 0.00 33 1012.7
20260505180030 16 108 3.2 8.0 0.00 0.00 0.00 34 1012.8
20260505175509 16 283 1.6 9.7 0.00 0.00 0.00 33 1013.0
20260505175016 16 293 1.6 9.7 0.00 0.00 0.00 32 1012.9
20260505174515 17 257 3.2 8.0 0.00 0.00 0.00 33 1012.7
20260505174007 16 229 3.2 8.0 0.00 0.00 0.00 35 1012.5
20260505173507 16 197 3.2 9.7 0.00 0.00 0.00 34 1012.5
20260505173023 16 143 3.2 9.7 0.00 0.00 0.00 35 1013.0
20260505172506 15 290 1.6 9.7 0.00 0.00 0.00 35 1013.2
20260505172012 15 295 1.6 8.0 0.00 0.00 0.00 35 1013.2
20260505171540 15 91 3.2 8.0 0.00 0.00 0.00 36 1013.3
20260505171006 15 10 1.6 11.3 0.00 0.00 0.00 36 1013.3
20260505170504 15 177 3.2 11.3 0.00 0.00 0.00 37 1013.3
20260505170014 15 266 1.6 8.0 0.00 0.00 0.00 37 1013.4
20260505165504 15 349 1.6 8.0 0.00 0.00 0.00 38 1013.4
20260505165003 14 263 1.6 8.0 0.00 0.00 0.00 38 1013.5
20260505164514 13 297 1.6 8.0 0.00 0.00 0.00 40 1013.5
20260505164005 13 273 1.6 6.4 0.00 0.00 0.00 40 1013.6
20260505163508 13 34 1.6 6.4 0.00 0.00 0.00 39 1013.7
20260505163016 13 203 1.6 8.0 0.00 0.00 0.00 39 1013.7
20260505162506 13 253 3.2 9.7 0.00 0.00 0.00 38 1013.7
20260505162008 14 282 3.2 9.7 0.00 0.00 0.00 38 1013.7
20260505161522 14 274 1.6 6.4 0.00 0.00 0.00 39 1013.7
20260505161003 13 290 1.6 6.4 0.00 0.00 0.00 39 1013.7
20260505160506 13 292 1.6 6.4 0.00 0.00 0.00 41 1013.7
20260505153014 12 210 3.2 6.4 0.00 0.00 0.00 43 1013.9
20260505152506 12 283 1.6 6.4 0.00 0.00 0.00 43 1013.7
20260505152006 12 261 1.6 9.7 0.00 0.00 0.00 43 1013.8
20260505151524 12 79 1.6 12.9 0.00 0.00 0.00 43 1013.7
20260505151007 12 301 1.6 12.9 0.00 0.00 0.00 43 1013.8
20260505150512 12 1 1.6 9.7 0.00 0.00 0.00 43 1013.8
20260505140508 12 149 1.6 6.4 0.00 0.00 0.00 40 1013.9
20260505125011 5 20 0.0 0.0 0.00 0.00 0.00 49 1013.8
20260505124522 5 20 0.0 0.0 0.00 0.00 0.00 49 1013.7
20260505124009 5 20 0.0 1.6 0.00 0.00 0.00 50 1013.7
20260505123509 5 20 0.0 1.6 0.00 0.00 0.00 49 1013.7
20260505123025 6 7 0.0 1.6 0.00 0.00 0.00 48 1013.6
20260505122509 6 7 0.0 1.6 0.00 0.00 0.00 47 1013.6
20260505122010 6 52 0.0 1.6 0.00 0.00 0.00 46 1013.6
20260505121512 6 53 0.0 1.6 0.00 0.00 0.00 46 1013.6
20260505121004 7 53 0.0 1.6 0.00 0.00 0.00 44 1013.5
20260505120505 7 53 0.0 3.2 0.00 0.00 0.00 43 1013.3
20260505120042 8 56 0.0 3.2 0.00 0.00 0.00 42 1013.2
20260505115504 8 7 0.0 4.8 0.00 0.00 0.00 42 1013.1
20260505115006 8 304 0.0 4.8 0.00 0.00 0.00 41 1013.3
20260505114523 8 98 0.0 4.8 0.00 0.00 0.00 41 1013.4
20260505114006 8 79 0.0 4.8 0.00 0.00 0.00 41 1013.4
20260505113508 8 350 1.6 3.2 0.00 0.00 0.00 41 1013.4
20260505113027 8 316 0.0 3.2 0.00 0.00 0.00 41 1013.4
20260505112508 8 327 0.0 4.8 0.00 0.00 0.00 41 1013.4
20260505112008 8 323 0.0 4.8 0.00 0.00 0.00 41 1013.4
20260505111528 8 19 0.0 3.2 0.00 0.00 0.00 40 1013.3
20260505111010 8 76 0.0 3.2 0.00 0.00 0.00 40 1013.1
20260505110509 8 319 0.0 4.8 0.00 0.00 0.00 40 1013.0
20260505102010 9 70 0.0 1.6 0.00 0.00 0.00 41 1012.8
20260505101526 9 336 0.0 6.4 0.00 0.00 0.00 39 1013.0
20260505101010 9 270 0.0 6.4 0.00 0.00 0.00 40 1013.0
20260505100510 9 69 0.0 1.6 0.00 0.00 0.00 40 1013.1
20260505100028 9 285 0.0 3.2 0.00 0.00 0.00 40 1013.0
20260505095508 9 276 0.0 4.8 0.00 0.00 0.00 40 1012.8
20260505095013 9 272 0.0 4.8 0.00 0.00 0.00 39 1012.9
20260505094529 9 83 0.0 1.6 0.00 0.00 0.00 39 1013.0
20260505094009 9 98 0.0 1.6 0.00 0.00 0.00 39 1013.2
20260505093505 10 98 0.0 1.6 0.00 0.00 0.00 38 1013.2
20260505093018 10 98 0.0 1.6 0.00 0.00 0.00 37 1013.1
20260505092507 10 13 0.0 1.6 0.00 0.00 0.00 37 1013.0
20260505092009 10 13 0.0 1.6 0.00 0.00 0.00 37 1013.0
20260505091527 10 6 0.0 1.6 0.00 0.00 0.00 36 1013.1
20260505091009 11 6 0.0 1.6 0.00 0.00 0.00 35 1013.2
20260505090508 11 6 0.0 1.6 0.00 0.00 0.00 34 1013.3
20260505090037 11 6 0.0 1.6 0.00 0.00 0.00 34 1013.4
20260505085510 11 6 0.0 4.8 0.00 0.00 0.00 33 1013.4
20260505085008 11 301 1.6 12.9 0.00 0.00 0.00 33 1013.4
20260505084529 11 1 1.6 12.9 0.00 0.00 0.00 33 1013.3
20260505084013 11 346 0.0 8.0 0.00 0.00 0.00 33 1013.4
20260505083507 11 356 0.0 8.0 0.00 0.00 0.00 33 1013.6
20260505083030 11 338 1.6 8.0 0.00 0.00 0.00 34 1013.9
20260505082507 11 345 0.0 4.8 0.00 0.00 0.00 33 1013.9
20260505082008 11 287 0.0 4.8 0.00 0.00 0.00 33 1013.9
20260505081522 11 12 0.0 4.8 0.00 0.00 0.00 33 1014.0
20260505081008 11 330 0.0 3.2 0.00 0.00 0.00 33 1013.9
20260505080508 12 327 0.0 4.8 0.00 0.00 0.00 33 1013.8
20260505080003 12 63 0.0 4.8 0.00 0.00 0.00 33 1014.0
20260505075502 12 31 0.0 4.8 0.00 0.00 0.00 33 1013.9
20260505075003 12 352 0.0 4.8 0.00 0.00 0.00 33 1014.0
20260505074503 12 231 0.0 4.8 0.00 0.00 0.00 33 1013.9
20260505074002 12 66 0.0 12.9 0.00 0.00 0.00 32 1013.8
20260505073501 12 134 1.6 12.9 0.00 0.00 0.00 32 1013.9
20260505073003 12 277 3.2 12.9 0.00 0.00 0.00 32 1013.8
20260505072504 12 111 0.0 9.7 0.00 0.00 0.00 31 1013.7
20260505072002 12 308 1.6 9.7 0.00 0.00 0.00 31 1013.8
20260505071513 12 350 1.6 8.0 0.00 0.00 0.00 31 1013.7
20260505071003 12 356 1.6 8.0 0.00 0.00 0.00 31 1013.7
20260505070505 12 271 1.6 14.5 0.00 0.00 0.00 31 1013.7
20260505070003 12 263 3.2 14.5 0.00 0.00 0.00 31 1013.7
20260505065503 12 172 0.0 12.9 0.00 0.00 0.00 31 1013.6
20260505065003 12 63 3.2 12.9 0.00 0.00 0.00 31 1013.7
20260505064506 12 292 1.6 12.9 0.00 0.00 0.00 31 1013.6
20260505064003 12 282 1.6 12.9 0.00 0.00 0.00 31 1013.5
20260505063502 12 284 1.6 6.4 0.00 0.00 0.00 31 1013.5
20260505063003 13 287 1.6 8.0 0.00 0.00 0.00 31 1013.4
20260505062503 13 327 1.6 8.0 0.00 0.00 0.00 32 1013.4
20260505062003 13 309 0.0 8.0 0.00 0.00 0.00 31 1013.3
20260505061507 13 23 0.0 8.0 0.00 0.00 0.00 31 1013.4
20260505061003 13 244 1.6 6.4 0.00 0.00 0.00 31 1013.4
20260505060503 13 338 1.6 8.0 0.00 0.00 0.00 32 1013.6
20260505060007 13 326 1.6 8.0 0.00 0.00 0.00 32 1013.5
20260505055503 12 20 1.6 6.4 0.00 0.00 0.00 32 1013.5
20260505055003 12 268 1.6 6.4 0.00 0.00 0.00 33 1013.5
20260505054505 12 35 0.0 4.8 0.00 0.00 0.00 34 1013.6
20260505054003 12 343 0.0 4.8 0.00 0.00 0.00 34 1013.7
20260505053504 12 296 0.0 3.2 0.00 0.00 0.00 34 1013.7
20260505053002 12 296 0.0 3.2 0.00 0.00 0.00 34 1013.7
20260505052503 12 276 0.0 4.8 0.00 0.00 0.00 34 1013.8
20260505052002 12 278 0.0 4.8 0.00 0.00 0.00 35 1013.8
20260505051506 11 94 0.0 1.6 0.00 0.00 0.00 35 1013.8
20260505051006 11 94 0.0 1.6 0.00 0.00 0.00 35 1013.8
20260505050503 11 94 0.0 1.6 0.00 0.00 0.00 35 1013.8
20260505041508 13 130 0.0 6.4 0.00 0.00 0.00 30 1013.8
20260505041003 13 349 0.0 6.4 0.00 0.00 0.00 29 1013.8
20260505040503 13 8 0.0 4.8 0.00 0.00 0.00 29 1013.9
20260505040004 13 307 0.0 4.8 0.00 0.00 0.00 28 1013.8
20260505035504 13 356 0.0 1.6 0.00 0.00 0.00 28 1013.8
20260505035003 13 355 0.0 1.6 0.00 0.00 0.00 28 1013.8
20260505034510 13 307 0.0 8.0 0.00 0.00 0.00 27 1013.9
20260505034006 13 286 0.0 8.0 0.00 0.00 0.00 27 1013.7
20260505033503 13 236 0.0 3.2 0.00 0.00 0.00 27 1013.7
20260505033006 14 355 0.0 3.2 0.00 0.00 0.00 26 1013.6
20260505032503 14 267 0.0 4.8 0.00 0.00 0.00 26 1013.5
20260505032003 14 282 0.0 4.8 0.00 0.00 0.00 25 1013.4
20260505031512 14 303 0.0 4.8 0.00 0.00 0.00 25 1013.3
20260505031003 15 270 0.0 4.8 0.00 0.00 0.00 25 1013.2
20260505030504 15 318 1.6 6.4 0.00 0.00 0.00 24 1013.2
20260505030004 15 59 1.6 6.4 0.00 0.00 0.00 24 1013.1
20260505025504 15 326 0.0 12.9 0.00 0.00 0.00 24 1013.1
20260505025004 15 282 1.6 12.9 0.00 0.00 0.00 24 1013.0
20260505024515 15 105 1.6 12.9 0.00 0.00 0.00 23 1012.9
20260505024003 15 347 1.6 9.7 0.00 0.00 0.00 23 1012.9
20260505023503 15 294 0.0 9.7 0.00 0.00 0.00 23 1012.9
20260505023011 15 341 1.6 14.5 0.00 0.00 0.00 22 1012.7
20260505022503 16 343 1.6 14.5 0.00 0.00 0.00 22 1012.7
20260505022003 16 330 0.0 8.0 0.00 0.00 0.00 21 1012.7
20260505021513 16 8 1.6 9.7 0.00 0.00 0.00 22 1012.8
20260505021006 16 266 0.0 9.7 0.00 0.00 0.00 21 1012.8
20260505020503 16 317 1.6 9.7 0.00 0.00 0.00 21 1012.9
20260505020006 16 7 1.6 6.4 0.00 0.00 0.00 20 1012.9
20260505015504 16 269 1.6 11.3 0.00 0.00 0.00 20 1012.8
20260505015004 16 279 3.2 11.3 0.00 0.00 0.00 20 1012.7
20260505014509 16 292 1.6 9.7 0.00 0.00 0.00 20 1012.5
20260505014003 16 354 1.6 8.0 0.00 0.00 0.00 20 1012.5
20260505013504 16 305 1.6 8.0 0.00 0.00 0.00 20 1012.4
20260505013007 16 345 1.6 6.4 0.00 0.00 0.00 19 1012.3
20260505012503 16 270 3.2 8.0 0.00 0.00 0.00 19 1012.3
20260505012004 16 274 0.0 8.0 0.00 0.00 0.00 19 1012.3
20260505011509 17 39 1.6 6.4 0.00 0.00 0.00 19 1012.3
20260505011004 17 341 1.6 4.8 0.00 0.00 0.00 19 1012.3
20260505010503 17 271 0.0 4.8 0.00 0.00 0.00 19 1012.3
20260505010009 17 69 1.6 3.2 0.00 0.00 0.00 19 1012.5
20260505005503 17 21 0.0 8.0 0.00 0.00 0.00 19 1012.3
20260505005004 17 136 1.6 9.7 0.00 0.00 0.00 18 1012.4
20260505004519 17 297 1.6 12.9 0.00 0.00 0.00 18 1012.5
20260505004003 17 277 4.8 12.9 0.00 0.00 0.00 18 1012.4
20260505003503 17 342 1.6 11.3 0.00 0.00 0.00 19 1012.3
20260505003012 17 283 1.6 11.3 0.00 0.00 0.00 19 1012.4